STARLINK-1790, 46691

Orbit data source: Space-Track

STARLINK-1790, 46691 is a payload satellite owned by SpaceX/Seattle (US) in LEO that was launched on Sun, 18 Oct 2020 UTC via an FALCON 9 launch vehicle from the Air Force Eastern Test Range (AFETR). Payload-class satellites include a variety of spacecraft equipped with specific instruments for various scientific and technological missions. These include communications satellites like Starlink; space stations such as the ISS; scientific satellites like the Hubble; Earth observation satellites from companies like Planet Labs, Umbra, and HawkEye 360; GPS; miniature CubeSats for education and research; and military/defense satellites.

Loading next visibility...
Identifier
46691, 2020-073X
Orbit
LEO
Country
Flag of USUS
Related business
Manufacturer
SpaceX/Seattle
Mission
Partially operational Commercial Communications
Bus & Motor
STARLINK, Unknown motor
Mass
260 kg wet, ~248 kg dry
Launch date (UTC)
2020-10-18 (5 years ago)
Launch vehicle
FALCON 9
Launch site
Air Force Eastern Test Range (AFETR)
Object type
Payload
Rocket body
Debris
Shape & HBR
Box + 1 Pan, 10.1 m
Radar Cross Section
13.562 m², Large (>1 m²)

Expand to show TLE details & history
Last TLE update: 5 hours ago

TLE from 5 hours ago
0 STARLINK-1790
1 46691U 20073X   25311.33335648  .00199851  00000-0  50545-2 0  9999
2 46691  53.0552  69.0615 0000752  83.6164 106.0269 15.38519577  5759
Epoch: 2025-11-07T08:00Z
TLE epoch observation values (Epoch: 2025-11-07T08:00:01.999Z)
Latitude
-7.82643°
Longitude
88.17463°
Altitude
452.866 km
Speed
7.641 km/s
True Right ascension
16h 59m 50s
True Declination
-7° 46' 41"
Sunlit
Object was in daylight at epoch
Visualization orbit readout
Latitude
Unknown
Longitude
Unknown
Altitude
Unknown
Speed
Unknown
Apparent Right ascension
Unknown
Apparent Declination
Unknown
Sunlit
N/A
Visualization observer readout
Local Sidereal Time
08:39:00
Azimuth
Unknown
Elevation
Unknown
Doppler factor
Unknown
Orbital elements
Apogee altitude
451.274 km
Perigee altitude
450.247 km
Semi-major axis
6,828.898 km
Eccentricity
0.00008
Inclination
53.0552°
RAAN
69.0615°
Arg. of periapsis
83.6164°
True anomaly
106.03518°
Mean anomaly
106.0269°
Eccentric anomaly
106.03104°
Mean motion
3.84607 °/min
Orbital period
93.6 mins
BSTAR
0.0050545
Loading maneuver chart data...
Computing Atmospheric mass density...
Loading historical data...
Loading historical data...
Loading historical data...
Loading historical data...
Loading historical data...
Loading historical data...
Loading historical data...

Documentation

Showing up to 5 results
|